Regional Weather Roundup
Issued by NWS

Home | Current Version | Previous Version | Graphics & Text | Print | Product List | Glossary On
Versions: 1 2 3 4 5 6 7 8 9 10 11 12 13 14 15 16 17 18 19 20 21 22 23 24 25 26 27 28 29 30 31 32 33 34 35 36 37 38 39 40 41 42 43 44 45 46 47 48 49 50
810
ASUS45 KPSR 220510
RWRAZ

ARIZONA HOURLY REGIONAL WEATHER ROUNDUP
NATIONAL WEATHER SERVICE PHOENIX AZ
1000 PM MST TUE FEB 21 2017

NOTE: FAIR INDICATES FEW OR NO CLOUDS BELOW 12,000 FEET WITH NO
SIGNIFICANT WEATHER AND/OR OBSTRUCTIONS TO VISIBILITY.

AZZ001>003-036-220600-
NORTHWEST ARIZONA

CITY           SKY/WX    TMP DP  RH WIND       PRES   REMARKS
BULLHEAD CITY  PTCLDY    61  55  82 CALM      30.12S
KINGMAN        PTCLDY    51  46  83 S7        30.17F
$$

AZZ004>008-015-016-018-220600-
NORTH CENTRAL ARIZONA

CITY           SKY/WX    TMP DP  RH WIND       PRES   REMARKS
GRAND CANYON   PTCLDY    36  36 100 CALM      30.26S
WILLIAMS       CLEAR     45  39  81 S15G21    30.26F
PRESCOTT       CLEAR     47  42  83 S6        30.25S
FLAGSTAFF      CLEAR     41  38  89 S7        30.29F
PAYSON         CLEAR     52  43  71 CALM      30.30S
PAGE           CLOUDY    55  33  43 SE9       30.10S
$$

AZZ009>014-017-220600-
NORTHEAST ARIZONA

CITY           SKY/WX    TMP DP  RH WIND       PRES   REMARKS
WINSLOW        PTCLDY    45  39  79 S6        30.24F
SAINT JOHNS    CLEAR     51  37  58 SW10      30.26S
WINDOW ROCK    MOCLDY    45  34  65 N6        30.28S
SHOW LOW       CLEAR     45  37  76 S10       30.32F
$$

AZZ023-220600-
GREATER PHOENIX AREA

CITY           SKY/WX    TMP DP  RH WIND       PRES   REMARKS
PHOENIX        MOCLDY    65  53  65 CALM      30.13F
BUCKEYE        CLEAR     59  59 100 NE5       30.14F
LUKE AFB       CLEAR     61  60  99 NW3       30.13S
DEER VALLEY    CLEAR     60  55  83 NE5       30.14F
SCOTTSDALE     CLEAR     63  52  67 CALM      30.17F
MESA-GATEWAY   PTCLDY    59  54  82 SE5       30.16F
$$

AZZ027-028-220600-
SOUTHWEST MARICOPA COUNTY AND PINAL COUNTY

CITY           SKY/WX    TMP DP  RH WIND       PRES   REMARKS
CASA GRANDE    NOT AVBL
GILA BEND      CLEAR     62  56  83 S5        30.13S
$$

AZZ503-504-507>509-220600-
SOUTHEAST ARIZONA

CITY           SKY/WX    TMP DP  RH WIND       PRES   REMARKS
TUCSON         CLEAR     60  48  64 CALM      30.21F
DAVIS-MONTHAN  CLEAR     57  48  72 S6        30.20F
NOGALES        CLEAR     49  38  65 SE3       30.23S
SIERRA VISTA   CLEAR     55  36  47 SW9       30.27F
DOUGLAS        CLEAR     51  37  58 N10       30.24S
SAFFORD        CLEAR     56  38  50 NW5       30.18S
$$

AZZ020-021-025-026-031-220600-
SOUTHWEST ARIZONA

CITY           SKY/WX    TMP DP  RH WIND       PRES   REMARKS
YUMA           CLEAR     66  55  67 S3        30.11F
$$

CAZ031-033-041-043-047-048-061-220600-
SOUTHERN CALIFORNIA

CITY           SKY/WX    TMP DP  RH WIND       PRES   REMARKS
DOWNTOWN L.A.  MOCLDY    61  53  75 CALM      30.23R
L.A. AIRPORT   MOCLDY    59  57  93 NW6       30.23R
SAN DIEGO      PTCLDY    60  54  80 N6        30.24R
BURBANK        MOCLDY    56  52  86 W5        30.22S
ONTARIO        MOCLDY    57  48  72 SW3       30.21S
RIVERSIDE      MOCLDY    59  52  77 CALM      30.22R
PALM SPRINGS   PTCLDY    64  53  67 SW3       30.14S
EL CENTRO NAS  MOCLDY    64  49  57 CALM      30.12F
IMPERIAL       CLEAR     65  53  65 CALM      30.10F
BLYTHE         CLEAR     65  58  78 CALM      30.10F
NEEDLES        PTCLDY    65  54  67 CALM      30.12S
$$

NVZ020-UTZ003-220600-
SOUTHERN NEVADA-UTAH

CITY           SKY/WX    TMP DP  RH WIND       PRES   REMARKS
LAS VEGAS      MOCLDY    62  40  44 SW14G22   30.06S
SALT LAKE CITY FLURRIES  34  33  96 SE8       30.10F WCI  27
$$

NMZ009-TXZ055-220600-
NEW MEXICO-WEST TEXAS

CITY           SKY/WX    TMP DP  RH WIND       PRES   REMARKS
ALBUQUERQUE    CLOUDY    49  29  46 SE6       30.22S
EL PASO        CLEAR     66  32  28 W13       30.18S
$$


........................KEY........................
SKY/WX - SKY CONDITION/WEATHER
TMP    - TEMPERATURE IN FAHRENHEIT
DP     - DEW POINT IN FAHRENHEIT
RH     - RELATIVE HUMIDITY IN PERCENT
WIND   - DIRECTION AND SPEED IN MILES PER HOUR (MPH)
VRB    - VARIABLE WIND DIRECTION
PRES   - MEAN SEA LEVEL PRESSURE IN INCHES OF MERCURY
         F - FALLING PRESSURE   R - RISING PRESSURE
         S - STEADY PRESSURE
VSB    - VISIBILITY IN MILES
HX     - HEAT INDEX IN FAHRENHEIT
WCI    - WIND CHILL INDEX IN FAHRENHEIT
TC     - TEMPERATURE IN CELSIUS WHICH IS ALSO KNOWN AS
         TEMPERATURE IN CENTIGRADE
AFB    - AIR FORCE BASE
         LUKE AFB IS LUKE AIR FORCE BASE
         DAVIS-MONTHAN IS DAVIS-MONTHAN AIR FORCE BASE
NAS    - NAVAL AIR STATION
         EL CENTRO NAS IS EL CENTRO NAVAL AIR STATION
N/A    - NOT AVAILABLE





USA.gov is the U.S. government's official web portal to all federal, state and local government web resources and services.